Temperature
16 16 16 16 16 16 16 16 16 16 16 16 16 16 16 16 16 16 16 16 16 17 17 17 17 17 17 17 17 17 17 17 17 17 17 18 18 18 18 18 18 18 18
16 16 16 16 16 16 16 16 16 16 16 16 16 16 16 16 16 16 16 16 16 16 17 17 17 17 17 17 17 17 17 17 17 17 17 17 18 18 18 18 18 18 18
16 16 16 16 16 16 16 16 16 16 16 16 16 16 16 16 16 16 16 16 16 16 16 16 16 17 17 17 17 17 17 17 17 17 17 17 18 18 18 18 18 18 18
16 16 16 16 15 15 15 16 16 16 16 16 16 16 16 16 16 16 16 16 16 16 16 16 16 16 17 17 17 17 17 17 17 17 17 17 17 17 18 18 17 17 17
16 16 16 15 15 15 15 15 15 16 16 16 16 16 16 16 16 16 16 16 16 16 16 16 16 16 16 16 16 17 17 17 17 17 17 17 17 17 17 17 17 17 17
15 15 15 15 15 15 15 15 15 15 16 16 16 16 16 16 16 16 16 16 16 16 16 16 16 16 16 16 16 16 17 17 17 17 17 17 17 17 17 17 17 17 17
15 15 15 15 15 15 15 15 15 15 15 16 16 16 16 16 16 16 16 16 16 16 16 16 16 16 16 16 16 16 16 17 17 17 17 17 17 17 17 17 17 17 17
15 15 15 15 15 15 15 15 15 15 15 15 16 16 16 16 16 16 16 16 16 16 16 15 15 15 16 16 16 16 16 16 16 16 17 17 17 17 17 17 17 17 17
15 15 15 15 15 15 15 15 15 15 15 15 15 15 15 15 16 16 16 16 16 16 15 15 15 15 15 16 16 16 16 16 16 16 16 16 17 17 17 17 17 17 17
15 15 15 15 15 15 15 15 15 15 15 15 15 15 15 15 15 15 15 16 16 15 15 15 15 15 15 15 15 16 16 16 16 16 16 16 16 16 16 16 16 16 16
15 15 15 15 15 15 15 15 15 15 15 15 15 15 15 15 15 15 15 15 15 15 15 15 15 15 15 15 15 15 15 15 16 16 16 16 16 16 16 16 16 16 16
15 15 15 15 15 15 15 14 14 15 15 15 15 15 15 15 15 15 15 15 15 15 15 15 15 15 15 15 15 15 15 15 15 15 15 16 16 16 16 16 16 16 16
15 15 15 15 15 15 15 14 14 14 14 14 14 14 14 14 14 14 15 15 15 15 15 14 14 14 14 14 15 15 15 15 15 15 15 15 15 15 16 16 16 16 16
15 15 15 15 15 15 14 14 14 14 14 14 14 14 14 14 14 14 14 14 14 14 14 14 14 14 14 14 14 14 14 15 15 15 15 15 15 15 15 15 15 16 16
15 15 15 15 15 15 14 14 14 14 14 14 14 14 14 14 14 14 14 14 14 14 14 14 13 14 14 14 14 14 14 14 14 14 15 15 15 15 15 15 15 15 16
15 15 15 15 15 15 14 14 14 14 14 14 14 14 14 14 14 14 14 14 14 14 13 13 13 13 13 13 13 13 14 14 14 14 14 14 14 15 15 15 15 15 15
15 15 15 15 15 14 14 14 14 14 14 13 13 13 13 13 13 13 13 13 13 13 13 13 13 13 13 13 13 13 13 13 13 14 14 14 14 14 14 15 15 15 15
15 15 15 15 14 14 14 14 14 14 14 13 13 13 13 13 13 13 13 13 13 13 13 12 12 12 12 13 13 13 13 13 13 13 13 13 13 14 14 14 14 14 15
15 15 15 14 14 14 14 14 14 14 13 13 13 13 13 13 13 13 13 13 13 12 12 12 12 12 12 12 12 12 12 13 13 13 13 13 13 13 13 14 14 14 14
15 15 15 14 14 14 14 14 14 13 13 13 13 13 13 13 13 13 12 12 12 12 12 12 12 12 12 12 12 12 12 12 12 12 12 12 13 13 13 13 13 13 13
15 14 14 14 14 14 14 14 13 13 13 13 13 13 13 13 12 12 12 12 12 12 11 11 11 11 11 11 11 11 11 11 12 12 12 12 12 12 12 12 12 13 13
15 14 14 14 14 14 14 13 13 13 13 12 12 12 12 12 12 12 12 11 11 11 11 11 10 10 10 10 10 10 10 10 10 11 11 11 11 11 11 11 12 12 12
15 14 14 14 14 13 13 13 13 13 12 12 12 12 11 12 12 12 11 11 11 11 10 10 10 10 10 10 10 10 10 10 10 10 10 10 10 10 11 11 11 11 11
14 14 14 13 13 13 13 13 13 13 12 12 12 12 11 11 11 11 11 11 11 10 10 10 10 10 10 10 9 9 9 9 9 10 9 9 9 9 10 10 10 10 10
14 14 13 13 13 13 13 13 13 12 12 12 11 11 11 11 11 11 11 11 11 10 10 10 10 10 10 9 9 9 9 9 9 9 9 8 8 9 9 9 10 10 9
14 13 13 13 13 13 12 12 12 12 12 11 11 11 11 11 10 10 10 10 10 10 10 10 10 10 9 9 9 8 8 8 8 8 8 8 8 7 7 8 8 8 9
Wind_Speed
3 3 3 4 5 5 4 4 4 4 4 5 5 6 5 5 5 8 9 9 8 7 7 6 7 7 8 8 8 8 8 8 8 7 6 5 4 3 3 4 5 8 9
4 3 3 3 5 6 6 5 5 4 3 3 4 5 5 5 5 7 8 8 8 7 7 6 7 7 8 8 8 8 8 7 7 6 5 4 4 3 3 3 6 9 11
8 5 3 3 5 8 8 6 6 4 4 4 4 4 4 5 5 6 6 6 7 7 7 7 7 8 8 8 8 8 8 7 7 7 6 6 5 5 4 5 8 11 12
9 6 4 4 7 8 6 4 5 5 5 4 4 3 3 4 5 5 5 6 7 7 7 7 7 8 8 8 8 8 8 7 7 7 8 7 7 6 6 8 11 12 11
11 7 4 5 8 5 4 6 5 4 4 3 2 3 4 4 3 5 5 6 7 8 8 7 8 9 8 8 8 9 8 8 8 8 8 8 8 8 8 10 10 11 11
11 8 4 6 7 5 6 5 6 5 4 4 4 4 3 4 4 5 5 6 7 8 8 7 7 8 10 10 10 10 10 9 9 8 8 8 8 8 8 9 10 10 10
10 7 5 5 5 5 5 6 5 6 5 4 3 3 4 5 5 5 4 4 5 7 8 8 8 8 9 12 13 13 12 12 11 9 8 9 8 8 8 8 9 9 8
10 8 5 4 4 5 6 6 5 5 4 5 3 2 3 5 5 5 5 5 5 6 6 10 10 10 10 10 12 15 13 13 12 11 10 9 8 7 6 7 7 7 7
9 9 7 5 4 5 5 6 6 6 5 5 6 4 3 2 2 4 5 5 5 5 4 7 10 11 12 11 11 13 14 13 12 11 10 9 8 7 5 5 5 5 5
7 7 7 6 5 5 6 6 7 5 5 5 4 5 4 2 2 2 4 5 6 6 6 6 8 10 12 11 12 13 14 13 12 12 11 9 9 8 6 4 3 2 2
5 6 7 7 5 4 5 6 6 6 5 5 4 4 5 5 5 3 2 3 4 4 5 5 5 7 10 11 11 12 12 13 12 11 11 9 8 7 6 5 4 2 0
3 4 5 5 5 4 5 5 5 6 5 6 6 5 5 4 4 3 2 2 2 2 4 4 4 5 8 10 11 12 10 11 11 11 10 10 9 7 6 5 4 3 2
2 3 4 4 4 5 5 5 5 5 5 6 6 5 5 5 4 4 3 2 2 1 3 4 4 6 8 9 9 10 9 8 9 9 9 9 8 7 6 5 4 3 3
3 3 3 4 5 5 5 5 4 5 6 6 6 5 4 5 5 4 3 3 3 3 4 4 3 6 8 8 9 9 8 8 8 8 7 7 7 6 6 5 4 3 3
3 3 3 3 4 5 5 5 4 5 6 6 6 6 5 4 5 5 4 4 3 3 3 4 4 4 7 7 9 9 8 7 7 7 7 7 6 6 5 5 4 4 4
3 2 2 3 3 4 4 4 4 4 4 4 3 5 5 4 4 5 4 4 4 2 2 3 3 4 7 9 11 11 10 9 8 8 7 7 6 6 6 6 6 6 6
2 2 3 3 4 4 4 4 3 5 5 4 5 5 5 5 4 5 4 4 4 4 3 3 3 4 5 6 7 10 10 9 9 9 9 8 7 7 7 8 8 8 8
2 2 3 4 5 5 4 4 4 4 4 5 5 5 5 5 5 5 4 5 4 4 3 4 4 4 5 5 5 6 8 11 11 10 10 10 9 10 10 10 10 10 10
3 3 4 5 5 5 5 4 3 4 4 4 5 5 6 6 6 5 5 5 4 5 3 3 4 3 3 4 5 6 7 7 11 11 10 11 12 13 12 12 12 12 11
3 3 4 4 5 5 5 5 5 4 4 4 4 5 5 6 6 6 5 6 5 5 4 4 4 4 3 4 4 4 5 5 7 9 10 12 13 13 14 14 13 12 11
3 3 4 4 5 4 5 6 5 4 4 4 3 3 4 6 7 5 4 4 5 4 4 4 4 4 4 4 4 4 5 5 6 4 5 7 9 8 11 13 12 13 12
3 4 4 5 4 4 7 9 7 5 4 3 3 3 3 4 4 4 5 4 4 3 3 3 3 4 5 5 4 5 5 5 5 4 5 7 6 6 8 10 12 14 14
3 3 3 4 4 4 5 6 7 5 3 3 3 4 4 4 5 4 5 5 4 5 4 2 3 4 5 5 5 5 5 6 6 6 5 6 5 6 8 13 16 16 16
3 2 2 3 3 3 3 3 5 3 3 2 2 2 2 3 5 5 5 5 4 4 4 3 3 5 5 5 5 5 6 6 6 5 5 6 5 6 8 12 16 16 17
3 3 2 2 2 2 2 2 2 2 2 2 1 2 2 3 5 6 5 5 5 6 8 9 9 10 11 12 10 4 4 4 6 5 4 4 5 7 7 6 12 15 17
3 3 3 2 2 2 4 2 1 1 2 2 1 2 3 3 3 4 3 4 5 6 7 8 9 10 10 10 10 4 3 4 5 5 4 4 5 6 6 5 5 12 15
Wind_Direction
12 4 53 16 14 10 2 355 16 24 23 23 20 33 30 52 78 96 105 100 91 80 69 61 59 57 52 51 48 43 38 32 28 34 48 64 84 99 121 138 151 147 137
32 10 32 20 10 10 12 13 21 15 18 36 26 37 36 35 68 102 116 114 101 89 74 66 65 63 57 51 45 43 42 37 35 41 58 61 65 74 112 141 153 153 146
43 27 17 11 12 13 13 21 20 14 23 35 37 41 49 30 45 85 110 122 116 98 83 76 70 67 65 58 50 43 39 48 54 56 61 58 62 63 83 121 141 141 140
52 38 12 8 23 19 12 22 25 13 19 25 29 35 51 39 36 56 85 96 105 109 101 87 76 72 71 63 56 47 46 59 65 66 62 59 68 73 83 109 128 134 134
37 41 19 20 27 23 14 23 24 14 12 14 36 57 52 52 30 44 59 74 81 93 106 95 83 73 71 61 54 47 49 67 73 72 70 68 73 83 88 98 119 128 130
28 30 29 36 32 25 15 23 17 11 6 8 33 52 57 55 47 41 45 62 67 71 78 86 85 76 68 57 47 44 52 64 71 72 72 75 78 84 94 102 113 123 127
25 29 29 33 38 38 23 25 15 10 11 9 30 31 44 52 50 54 47 54 54 55 63 69 71 75 67 55 46 46 54 60 62 66 71 76 78 81 90 102 112 123 127
26 31 33 26 38 37 26 28 23 16 10 23 31 38 28 20 17 41 46 52 44 46 50 59 58 67 70 63 49 47 50 52 54 57 61 70 74 77 82 93 109 120 124
38 26 24 30 36 46 32 30 25 28 17 16 34 49 62 28 349 9 33 46 36 38 44 58 56 57 65 61 53 45 45 48 51 51 53 60 66 71 82 93 105 120 130
50 27 25 34 43 42 38 33 31 20 29 20 17 28 46 73 61 19 11 29 36 42 42 51 52 51 58 63 57 46 44 44 45 45 45 50 53 54 59 74 89 106 145
57 36 35 37 41 40 43 42 35 30 28 25 28 21 16 20 35 62 29 12 22 32 47 52 57 53 53 57 56 43 45 44 40 37 38 41 43 45 49 52 56 53 31
57 44 46 43 44 42 38 33 43 45 37 31 31 32 35 34 18 29 34 27 30 22 41 45 50 53 53 53 48 39 44 46 39 36 34 36 36 36 37 38 38 37 10
73 54 52 46 45 48 43 29 32 41 45 47 43 30 28 29 28 27 29 13 21 12 37 42 41 48 48 47 39 32 35 37 32 33 35 31 26 22 19 19 20 11 352
87 81 66 65 54 47 46 41 29 36 39 38 44 40 36 24 24 32 31 22 19 16 31 31 28 39 40 40 31 30 29 26 21 22 26 22 15 9 4 357 350 338 323
77 76 86 86 77 58 44 42 40 43 43 34 36 33 35 27 23 24 25 34 47 26 8 14 16 16 29 35 28 19 17 15 14 15 10 4 2 358 347 338 332 320 306
58 59 75 85 82 75 61 54 43 40 52 50 56 48 35 28 24 22 19 24 33 46 20 3 9 13 21 20 21 14 7 11 8 360 355 351 348 341 334 326 315 305 295
75 65 61 65 70 76 75 66 47 45 38 34 45 60 50 35 28 22 19 27 25 32 28 353 7 14 18 12 5 2 4 1 354 356 351 343 338 332 324 315 309 299 289
72 64 68 63 61 56 60 68 58 58 52 41 36 44 44 42 33 22 24 24 20 23 32 359 347 2 7 1 1 359 2 359 352 348 351 350 346 335 323 314 306 298 288
82 64 69 69 64 56 53 49 54 61 62 57 50 45 39 39 30 21 26 24 15 15 12 4 346 351 353 357 3 356 357 353 350 350 349 346 341 335 327 317 311 304 295
89 77 72 73 67 57 47 33 30 42 53 61 64 61 52 50 36 19 24 18 15 10 2 2 350 343 341 340 5 355 349 344 338 343 352 342 332 328 325 321 314 307 302
87 82 78 73 71 67 48 35 20 24 36 41 56 80 79 70 54 35 22 11 12 7 358 359 348 344 342 350 350 343 342 329 324 335 339 331 327 321 316 312 309 306 302
79 71 72 76 69 63 57 45 27 7 10 21 24 49 84 71 50 15 358 360 4 3 353 345 337 336 333 337 339 340 334 334 321 319 330 318 323 313 311 311 314 313 306
100 90 88 90 90 79 69 41 19 0 353 13 19 21 34 51 45 21 350 339 328 323 321 312 324 317 319 325 331 329 321 314 301 296 315 306 311 311 316 323 324 318 308
128 127 120 118 115 110 85 43 8 344 331 2 18 30 49 49 40 29 5 356 341 329 319 317 297 296 304 305 304 300 296 304 302 306 319 307 311 312 317 317 314 316 318
144 151 157 152 141 141 136 89 13 322 316 327 354 39 56 69 45 34 16 344 332 324 326 326 314 308 309 310 310 316 319 320 313 307 316 314 314 314 308 304 313 317 318
154 162 166 174 166 151 152 129 38 317 320 328 6 51 61 73 45 30 9 335 320 312 322 325 320 315 311 307 308 291 280 300 305 304 311 320 311 321 309 297 312 319 315
Height
1547 1546 1545 1544 1543 1542 1541 1540 1539 1539 1538 1538 1538 1538 1538 1539 1539 1538 1539 1539 1538 1538 1539 1538 1538 1538 1537 1537 1536 1535 1534 1533 1532 1530 1529 1530 1530 1531 1531 1532 1532 1534 1538
1548 1547 1546 1545 1544 1543 1542 1541 1541 1540 1540 1540 1540 1540 1540 1540 1540 1540 1540 1540 1540 1540 1540 1539 1539 1539 1538 1537 1537 1536 1535 1534 1532 1531 1531 1531 1530 1530 1529 1527 1526 1530 1536
1549 1548 1547 1547 1546 1545 1544 1543 1542 1541 1541 1541 1541 1541 1541 1541 1541 1541 1541 1541 1541 1541 1541 1540 1540 1540 1539 1538 1537 1536 1535 1533 1533 1532 1532 1531 1530 1529 1526 1522 1522 1528 1536
1551 1550 1549 1548 1547 1546 1545 1544 1543 1543 1542 1542 1542 1542 1542 1543 1543 1543 1543 1543 1543 1542 1542 1542 1541 1541 1540 1539 1538 1537 1535 1534 1534 1533 1533 1532 1531 1529 1526 1523 1525 1531 1538
1553 1552 1551 1550 1548 1547 1546 1545 1545 1544 1544 1544 1544 1544 1544 1544 1544 1544 1544 1544 1544 1544 1543 1543 1542 1542 1541 1540 1538 1536 1535 1534 1535 1535 1534 1533 1533 1532 1531 1530 1532 1537 1541
1554 1553 1552 1551 1550 1548 1547 1547 1546 1546 1546 1545 1545 1546 1546 1546 1546 1546 1546 1546 1546 1546 1545 1545 1544 1543 1542 1541 1538 1535 1533 1534 1535 1536 1536 1536 1536 1536 1536 1536 1538 1541 1544
1556 1555 1554 1553 1551 1550 1549 1549 1548 1548 1547 1547 1547 1547 1548 1548 1548 1548 1548 1548 1548 1548 1547 1546 1545 1544 1543 1542 1540 1537 1534 1535 1537 1538 1538 1539 1539 1539 1540 1541 1542 1544 1547
1557 1556 1555 1555 1553 1552 1551 1551 1550 1549 1549 1549 1549 1548 1549 1551 1550 1551 1550 1550 1550 1550 1549 1548 1547 1546 1545 1544 1543 1541 1539 1539 1540 1540 1541 1541 1541 1542 1543 1544 1545 1547 1548
1558 1558 1557 1557 1556 1554 1554 1553 1552 1551 1551 1551 1551 1551 1551 1552 1552 1553 1553 1552 1552 1551 1551 1550 1549 1548 1547 1546 1545 1544 1543 1543 1543 1543 1543 1543 1544 1544 1545 1546 1547 1548 1549
1560 1560 1559 1559 1557 1556 1556 1555 1554 1554 1553 1553 1553 1553 1554 1554 1554 1554 1555 1554 1554 1553 1553 1552 1551 1550 1549 1548 1547 1546 1545 1545 1545 1545 1545 1545 1545 1546 1546 1547 1548 1549 1550
1562 1562 1561 1560 1559 1558 1558 1557 1556 1556 1555 1555 1555 1555 1555 1555 1555 1555 1556 1556 1555 1555 1555 1554 1553 1552 1551 1550 1549 1548 1548 1547 1547 1547 1547 1547 1547 1547 1547 1548 1549 1549 1550
1564 1563 1563 1562 1561 1560 1560 1559 1559 1558 1557 1557 1557 1557 1557 1556 1557 1557 1557 1557 1556 1557 1556 1555 1554 1554 1553 1551 1550 1550 1549 1548 1548 1548 1548 1548 1548 1548 1548 1548 1549 1549 1550
1565 1564 1564 1563 1563 1562 1562 1561 1561 1560 1560 1559 1559 1558 1558 1558 1559 1558 1558 1558 1557 1558 1558 1557 1556 1555 1554 1553 1552 1551 1550 1549 1549 1548 1548 1548 1548 1548 1548 1548 1549 1549 1549
1566 1566 1565 1565 1564 1564 1563 1563 1562 1562 1561 1561 1560 1560 1560 1560 1560 1559 1559 1559 1558 1559 1558 1558 1557 1556 1555 1554 1553 1552 1551 1550 1549 1549 1548 1548 1548 1548 1548 1548 1548 1548 1549
1567 1567 1566 1566 1565 1565 1565 1564 1564 1563 1563 1562 1562 1561 1561 1561 1561 1560 1560 1560 1560 1559 1559 1559 1558 1557 1556 1555 1554 1552 1551 1550 1549 1549 1548 1548 1547 1547 1547 1547 1547 1547 1547
1567 1568 1567 1567 1566 1566 1565 1565 1565 1564 1564 1563 1563 1562 1562 1562 1561 1561 1561 1561 1560 1560 1560 1560 1559 1558 1556 1555 1554 1552 1551 1550 1549 1548 1547 1547 1546 1546 1546 1546 1546 1546 1546
1568 1568 1568 1568 1567 1567 1566 1566 1566 1565 1565 1565 1564 1564 1563 1563 1562 1562 1561 1561 1561 1560 1560 1560 1559 1558 1556 1555 1553 1552 1550 1549 1548 1547 1546 1546 1545 1544 1544 1544 1543 1543 1543
1568 1568 1568 1568 1567 1567 1567 1567 1566 1566 1566 1565 1565 1565 1564 1564 1563 1562 1562 1561 1561 1560 1560 1559 1558 1557 1556 1554 1553 1551 1549 1548 1547 1546 1545 1544 1543 1542 1542 1541 1541 1540 1540
1567 1568 1568 1567 1567 1567 1567 1567 1567 1567 1566 1566 1566 1565 1564 1564 1563 1562 1562 1561 1560 1560 1559 1558 1557 1556 1555 1553 1552 1550 1549 1547 1546 1544 1543 1542 1541 1540 1539 1538 1538 1537 1537
1567 1567 1567 1567 1567 1567 1567 1567 1567 1567 1567 1566 1566 1565 1565 1564 1563 1562 1562 1561 1560 1559 1558 1557 1556 1555 1554 1552 1551 1548 1547 1545 1544 1542 1541 1540 1538 1537 1536 1535 1534 1534 1533
1566 1566 1566 1567 1567 1567 1567 1567 1567 1567 1567 1566 1566 1565 1565 1564 1563 1562 1561 1560 1559 1558 1557 1556 1555 1554 1552 1551 1549 1547 1545 1543 1542 1540 1538 1537 1535 1534 1533 1532 1531 1530 1530
1564 1565 1565 1566 1566 1566 1566 1566 1566 1566 1566 1566 1565 1565 1564 1563 1562 1561 1560 1559 1559 1557 1556 1555 1553 1552 1551 1549 1548 1546 1543 1541 1538 1538 1536 1534 1532 1530 1529 1528 1527 1526 1525
1563 1563 1564 1564 1565 1565 1565 1565 1565 1565 1564 1564 1564 1564 1563 1562 1561 1560 1559 1558 1558 1556 1556 1554 1552 1551 1549 1548 1545 1543 1541 1539 1537 1535 1533 1530 1529 1527 1526 1524 1523 1522 1520
1561 1562 1562 1563 1563 1563 1563 1563 1563 1563 1563 1563 1563 1562 1562 1561 1560 1559 1558 1557 1556 1555 1554 1552 1551 1549 1548 1546 1544 1542 1539 1536 1534 1533 1531 1527 1524 1522 1521 1519 1518 1517 1515
1559 1559 1560 1561 1561 1561 1562 1562 1562 1561 1561 1561 1561 1561 1560 1559 1558 1557 1556 1554 1553 1552 1551 1550 1549 1547 1545 1543 1541 1538 1536 1533 1530 1528 1527 1525 1521 1517 1515 1514 1513 1511 1509
1556 1557 1558 1559 1559 1559 1560 1560 1560 1559 1559 1559 1559 1558 1558 1557 1556 1554 1553 1552 1550 1549 1547 1546 1545 1543 1541 1539 1538 1536 1534 1531 1527 1525 1523 1521 1517 1514 1509 1507 1506 1505 1503